カタログに戻る

STARLINK-3721

運用中通信VLEO
NORAD 52134·PAYLOAD·🇺🇸 United States

打ち上げ Mar 19, 2022 から Cape Canaveral Space Force Station

Loading…

次のパス (今後24時間)

TLE

最新Source: CelesTrak SupGP

元期: Sep 15, 2026, 01:41 UTC

1 52134C 22029AY  26258.07062500  .00015348  00000+0  45341-3 0  2581
2 52134  53.1577 292.8041 0001207  95.8693 324.2787 15.34387137    17

AllMySatでSTARLINK-3721をリアルタイム追跡

Download on the App Store